Flag for Bahrain Weather past 2 weeks in Manama, Bahrain

Now
91 °F

Sunny.


Feels Like: 87 °F
Forecast: 75 / 95 °F
Wind: 10 mph from North

Location: Bahrain International Airport

Current Time: Apr 21, 2015 at 3:54:57 PM

Latest Report: Apr 21, 2015 at 3:00 PM


Visibility: 10 mi

Pressure: 29.86 "Hg

Humidity: 11%

Dew point: 30 °F

Location of ManamaLocation

Historic Weather in Manama — Graph

°F

Manama temperature yesterday

Maximum temperature yesterday: 86 °F (at 2:00 PM)
Minimum temperature yesterday: 73 °F (at 3:00 AM)
Average temperature yesterday: 79 °F

Past Weeks' High & Low Weather Summary

 TemperatureHumidityPressure
High106 °F (Apr 12, 3:00 PM)83% (Apr 16, 5:00 AM)30.04 "Hg (Apr 16, 5:00 AM)
Low70 °F (Apr 16, 3:00 AM)10% (Apr 12, 3:00 PM)29.71 "Hg (Apr 12, 4:00 PM)
Average80 °F47%29.88 "Hg
* Reported Apr 6 3:00 PM — Apr 21 3:00 PM, Manama, Weather by CustomWeather, © 2015

Note: Actual official high and low records may vary slightly from our data, if they occured in-between our weather recording intervals... More about our weather records

Advertising

Manama weather history for previous 24 hours

 ConditionsComfort  
Time TempWeatherWind HumidityBarometerVisibility
3:00 PM
Tue, Apr 21
91 °FSunny.10 mph11%29.86 "Hg10 mi
2:00 PM91 °FSunny.12 mph13%29.89 "Hg10 mi
1:00 PM91 °FSunny.13 mph11%29.92 "Hg10 mi
12:00 PM91 °FSunny.13 mph11%29.92 "Hg10 mi
11:00 AM90 °FSunny.14 mph11%29.95 "Hg10 mi
10:00 AM88 °FSunny.12 mph15%29.95 "Hg10 mi
9:00 AM86 °FSunny.8 mph19%29.95 "Hg10 mi
8:00 AM82 °FPassing clouds.7 mph26%29.95 "HgN/A
7:00 AM79 °FSunny.7 mph39%29.92 "Hg10 mi
6:00 AM75 °FSunny.9 mph50%29.92 "Hg10 mi
5:00 AM75 °FClear.10 mph34%29.89 "Hg10 mi
4:00 AM75 °FClear.10 mph34%29.89 "Hg10 mi
3:00 AM75 °FClear.2 mph41%29.89 "Hg10 mi
2:00 AM77 °FClear.6 mph39%29.89 "Hg10 mi
1:00 AM77 °FClear.6 mph42%29.89 "Hg10 mi
12:00 AM77 °FClear.7 mph39%29.92 "Hg10 mi
11:00 PM
Mon, Apr 20
77 °FClear.7 mph51%29.92 "Hg10 mi
10:00 PM77 °FClear.7 mph47%29.92 "Hg10 mi
9:00 PM79 °FClear.7 mph39%29.92 "Hg10 mi
8:00 PM77 °FClear.9 mph47%29.92 "Hg10 mi
7:00 PM77 °FClear.9 mph51%29.92 "Hg10 mi
6:00 PM79 °FSunny.15 mph48%29.92 "Hg10 mi
5:00 PM82 °FSunny.16 mph40%29.89 "Hg10 mi
4:00 PM84 °FSunny.17 mph33%29.89 "Hg10 mi
3:00 PM86 °FSunny.16 mph27%29.89 "Hg10 mi
Weather by CustomWeather, © 2015

See weather overviewHow to use our weather pages